Location: Burrweiler
(49.2498°N, 8.0756°E)
Time: 17:50:54
(UTC+00:00)

Daily predictions for brighter satellites

Satellite Brightness Start Highest point End
(mag) Time Altitude Azimuth Time Altitude Azimuth Time Altitude Azimuth
MetOp-B 4.2 20:08:21 10° SSE 20:13:42 85° ENE 20:19:06 10° NNW
Cosmos 1607 4.0 20:08:11 10° SSW 20:14:20 65° ESE 20:20:28 10° NE
USA 245 3.6 20:12:09 10° SSE 20:16:38 62° ENE 20:20:14 10° N
SL-8 R/B 3.7 20:12:04 10° W 20:16:53 83° S 20:21:44 10° E
NOSS 2-1 (E) 4.1 20:13:45 10° NW 20:18:10 77° NE 20:24:27 10° SE
Cosmos 1190 Rocket 4.5 20:14:56 10° NNW 20:20:12 62° WSW 20:25:25 10° S
Cosmos 1624 Rocket 4.0 20:15:04 10° SSW 20:20:17 75° ESE 20:25:30 10° NNE
Cosmos 2228 4.4 20:19:52 10° NNE 20:23:22 24° ENE 20:26:51 10° SE
Cosmos 1833 Rocket 4.1 20:19:51 10° SE 20:23:43 19° E 20:27:36 10° NE
Meteor 1-24 Rocket 3.6 20:19:05 10° S 20:24:22 75° E 20:29:50 10° NNE
Cosmos 1536 Rocket 4.4 20:23:32 10° SSE 20:27:25 33° E 20:31:20 10° NNE
H-2A R/B 3.0 20:24:14 10° N 20:28:32 53° WNW 20:32:52 10° SW
Cosmos 2084 3.1 20:24:55 10° SW 20:28:44 72° SE 20:32:37 10° NE
ERS-1 Rocket 3.3 20:23:59 10° SE 20:28:52 53° ENE 20:33:46 10° N
Cosmos 1975 Rocket 3.6 20:29:11 10° SSW 20:33:36 65° WNW 20:38:01 10° N
CARTOSAT-1 3.8 20:29:58 10° S 20:34:17 71° WSW 20:38:36 10° NNW
SPOT 3 Rocket 3.7 20:29:42 10° SSE 20:34:54 83° WSW 20:40:10 10° NNW
Cosmos 2056 Rocket 3.8 20:35:53 10° SSW 20:41:17 77° WNW 20:46:45 10° NNE
ATLAS 5 CENTAUR R/B 4.2 20:30:51 10° NW 20:43:51 44° WSW 20:48:01 10° S
Cosmos 1741 Rocket 4.4 20:40:24 10° NNW 20:45:40 57° ENE 20:50:33 12° SE
Cosmos 1271 Rocket 3.0 20:41:59 10° NNW 20:45:58 73° W 20:49:54 10° S
Cosmos 676 Rocket 4.5 20:42:42 10° NNW 20:47:57 60° WSW 20:53:07 10° S
Cosmos 1420 Rocket 4.2 20:42:48 10° SSW 20:48:03 82° WNW 20:53:23 10° NNE
Cosmos 2082 Rocket 4.0 20:46:23 10° ESE 20:48:54 13° E 20:51:26 10° ENE
Cosmos 1544 Rocket 3.9 20:45:37 10° NNW 20:49:54 66° W 20:54:12 10° S
Lacrosse 5 rocket 2.7 20:48:02 10° WNW 20:51:16 25° SW 20:54:36 10° S
Tiangong 3.1 20:50:39 10° SW 20:52:36 15° SSW 20:53:52 13° SSE
USA 102 2.2 20:44:15 11° SE 20:53:16 54° E 20:53:58 32° NNE
Cosmos 724 4.2 20:48:06 10° SSW 20:53:53 71° ESE 20:59:40 10° NE
Helios 1A Rocket 3.0 20:53:26 11° SSE 20:57:25 81° WSW 21:01:33 10° NNW
USA 276 1.9 20:55:43 10° WSW 20:58:42 62° SSE 21:01:40 10° E
X-37B 1.0 20:56:37 10° WSW 20:59:12 32° S 21:01:12 14° ESE
NOSS 2-1 (C) 4.5 20:55:18 10° NW 20:59:44 54° SW 21:05:17 13° SSE
SPOT 5 2.7 20:55:24 10° S 20:59:49 75° WSW 21:04:10 10° NNW
USA 267 3.7 20:55:18 10° ENE 21:01:18 37° SE 21:07:16 10° SSW
Ariane Rocket 4.5 20:58:07 10° SSW 21:02:40 33° W 21:07:16 10° NNW
RESURS DK-1 2.4 21:03:21 10° NNW 21:07:30 74° ENE 21:10:41 16° SE
Cosmos 1455 3.5 21:09:12 10° NNW 21:12:42 36° W 21:16:13 10° SSW
Resurs 01 Rocket 4.1 21:09:54 10° SW 21:12:46 17° W 21:15:38 10° NW
Cosmos 2184 Rocket 4.0 21:06:47 10° N 21:12:59 87° W 21:18:46 12° S
Cosmos 1850 Rocket 4.0 21:10:00 10° NNW 21:15:14 84° WSW 21:19:25 16° SSE
Cosmos 2344 4.4 21:08:34 10° NW 21:17:10 74° NE 21:28:41 11° SE
ASTRO F (AKARI) 4.5 21:16:19 18° SSE 21:18:51 82° ENE 21:22:24 10° NNW
Lacrosse 5 3.0 21:20:50 10° WNW 21:25:21 32° SW 21:28:44 16° S
Terra 2.1 21:21:16 13° S 21:25:25 64° WSW 21:30:10 10° NNW
FALCON 9 DEB 4.4 21:25:01 10° WNW 21:28:08 40° N 21:31:15 10° ENE
COSMOS 2406 3.9 21:25:53 16° SSE 21:29:57 37° ESE 21:35:13 10° NE
SL-16 R/B 4.3 21:26:03 10° N 21:30:13 20° NE 21:34:21 10° E
Cosmos 2369 4.2 21:24:49 10° NNW 21:30:28 54° NE 21:34:58 16° SE
Cosmos 1331 Rocket 4.1 21:25:33 11° S 21:30:30 59° ESE 21:35:44 10° NNE
Cosmos 2341 Rocket 4.5 21:26:59 10° N 21:33:10 51° ENE 21:37:44 18° SE
Cosmos 2058 Rocket 3.9 21:29:54 10° N 21:34:02 38° ENE 21:36:44 19° SE
Cosmos 1892 Rocket 4.1 21:33:27 20° SSE 21:36:03 41° E 21:40:12 10° NNE
Cosmos 1980 Rocket 2.7 21:31:03 10° NNW 21:36:40 54° NE 21:41:03 16° SE
ATLAS 2AS CENTAUR R/B 3.8 21:30:31 10° NW 21:36:42 34° WSW 21:41:57 13° S
USA 234 3.4 21:30:19 10° ESE 21:36:52 75° NNE 21:43:26 10° NW
Cosmos 1697 Rocket 2.7 21:33:10 10° NNW 21:38:49 85° WSW 21:42:50 20° SSE
Cosmos 1900 4.4 21:34:05 10° NW 21:39:18 87° NE 21:42:53 20° SE
Cosmos 1892 3.9 21:38:17 20° SE 21:39:45 26° E 21:42:56 10° NNE
Cosmos 1452 Rocket 3.8 21:37:31 10° SSW 21:42:45 70° WNW 21:48:01 10° NNE
Cosmos 1703 4.0 21:39:32 10° SSW 21:43:18 50° WNW 21:47:05 10° N
ARIANE 5 R/B 3.2 21:41:11 16° S 21:44:33 53° W 21:48:55 10° NNW
Cosmos 1408 3.3 21:44:51 25° SE 21:46:06 33° E 21:49:15 10° NNE
GP-B 3.3 21:48:25 10° N 21:52:49 58° E 21:55:18 24° SSE
Meteor 1-11 4.5 21:49:11 20° SSE 21:52:51 53° E 21:58:16 10° NNE
SAR-Lupe-4 3.5 21:49:48 10° NNE 21:53:23 72° ESE 21:55:20 25° S
Cosmos 1110 Rocket 4.0 21:48:24 10° SSW 21:53:40 85° WNW 21:59:01 10° NNE
Cosmos 1867 4.0 21:50:24 10° NW 21:55:50 60° NE 22:00:06 16° ESE
Cosmos 1302 Rocket 4.3 21:54:27 21° S 21:57:40 50° ESE 22:02:41 10° NNE
Cosmos 1328 3.8 21:55:44 20° SSW 21:58:28 80° W 22:02:30 10° N
SL-8 R/B 3.9 21:54:35 10° W 21:59:16 51° SSW 22:02:04 23° SE
Cosmos 2228 4.2 21:57:06 10° NNW 22:00:58 35° W 22:04:03 15° SSW
Spot 4 4.3 22:00:14 22° SE 22:03:07 53° ENE 22:07:47 10° N
Cosmos 2181 Rocket 4.3 22:02:46 22° SSE 22:06:37 52° E 22:12:37 10° NNE
Cosmos 1833 Rocket 2.8 22:01:23 10° SSW 22:06:59 77° WNW 22:12:39 10° NNE
Cosmos 2084 Rocket 3.2 22:03:25 10° NW 22:07:20 87° SW 22:09:23 28° SE
Cosmos 2322 Rocket 4.0 22:04:14 10° NNW 22:08:54 25° NE 22:13:35 10° E
Cosmos 192 4.3 22:05:44 21° S 22:09:00 69° ESE 22:13:54 10° NNE
SAR-Lupe-1 4.4 22:06:01 10° N 22:09:34 65° WNW 22:11:51 21° SSW
ATLAS 5 CENTAUR R/B 3.1 22:10:07 15° ESE 22:10:07 15° ESE 22:12:04 10° ENE
Cosmos 1606 Rocket 4.4 22:06:47 10° NNW 22:10:53 43° W 22:13:37 19° SSW
SJ 16-02 3.6 22:09:22 10° N 22:12:29 18° NE 22:15:36 10° E
Okean 1-7 Rocket 4.2 22:11:18 26° SE 22:13:14 41° E 22:17:27 10° NNE
Cosmos 2278 4.0 22:09:08 10° NNW 22:14:50 62° ENE 22:18:44 20° SE
Cosmos 968 Rocket 3.6 22:19:07 10° NNW 22:24:18 71° WSW 22:27:10 27° S
ASTEX 1 3.9 22:26:46 10° N 22:31:41 57° WNW 22:35:10 19° SSW
Cosmos 2082 Rocket 2.2 22:27:58 20° SSW 22:32:01 76° ESE 22:37:44 10° NNE
X-37B 2.7 22:31:52 10° WSW 22:32:25 14° WSW 22:32:25 14° WSW
USA 276 2.1 22:31:23 10° W 22:34:24 74° N 22:37:24 10° E
ADEOS Rocket 3.6 22:30:44 22° SSE 22:35:43 72° ENE 22:43:24 10° NNW
Cosmos 1825 2.1 22:38:07 39° S 22:39:22 70° E 22:43:07 10° NNE
ERS-2 3.4 22:37:46 10° NE 22:40:47 25° E 22:41:23 23° ESE
USA 267 3.3 22:38:10 10° NE 22:44:44 83° NNW 22:51:18 10° WSW
Cosmos 2360 Rocket 3.8 22:42:52 10° NNW 22:47:52 30° NE 22:52:51 10° ESE
Cosmos 1812 Rocket 3.8 22:44:57 10° N 22:49:25 63° ENE 22:51:22 32° SSE
Cosmos 1633 2.9 22:51:55 40° SE 22:52:40 48° E 22:56:02 10° NNE
SL-8 Rocket 4.4 22:48:39 10° NNW 22:54:43 54° W 22:58:31 23° SSW
H-2A R/B 3.4 22:51:11 10° NNE 22:55:25 78° ESE 22:57:07 35° S
ALOS 2 2.6 22:53:39 34° S 22:55:31 81° WSW 22:59:57 10° NNW
Cosmos 1606 3.5 22:56:11 10° N 22:59:52 43° ENE 23:01:19 29° SE
Cosmos 1486 Rocket 4.0 22:56:01 10° NNW 23:01:14 75° WSW 23:03:45 31° S
Cosmos 1602 Rocket 3.5 23:02:19 36° S 23:04:01 77° E 23:08:21 10° NNE
FALCON 9 DEB 3.1 23:01:24 10° WNW 23:04:41 74° NNE 23:06:29 24° ESE
Celestis-02/Orion 38 4.5 23:04:14 28° SSE 23:06:59 86° WSW 23:12:06 10° NNW
Cosmos 1869 3.9 23:03:42 10° NNW 23:07:25 46° W 23:08:43 32° SW
BREEZE-M DEB (TANK) 3.9 23:08:28 10° W 23:11:58 82° S 23:26:27 10° ESE
Cosmos 1992 Rocket 4.0 23:09:46 27° SSW 23:12:45 86° WNW 23:18:02 10° NNE
COSMOS 2406 4.2 23:08:42 10° SW 23:14:12 44° NW 23:19:43 10° NNE
SL-16 R/B 2.2 23:09:31 10° NNW 23:15:15 80° ENE 23:18:41 25° SE
Cosmos 1892 4.4 23:13:06 16° WSW 23:15:15 26° WNW 23:18:28 10° NNW
Cosmos-2242 2.9 23:14:22 10° N 23:18:38 83° W 23:20:11 38° S
Cosmos 2058 3.5 23:18:20 32° SE 23:19:44 44° E 23:23:45 10° NNE
USA 234 3.6 23:16:55 27° S 23:20:09 45° SW 23:26:24 10° WNW
Cosmos 1980 Rocket 3.4 23:15:32 10° NW 23:20:23 30° WSW 23:22:48 22° SW
Cosmos 1354 Rocket 4.0 23:20:48 10° NNW 23:26:10 90° SSE 23:28:54 29° SSE
Cosmos 2219 Rocket 4.0 23:22:42 10° NNW 23:27:35 28° NE 23:32:27 10° ESE
Cosmos 1953 Rocket 4.4 23:27:02 28° SE 23:28:45 40° E 23:32:55 10° NNE
Cosmos 1626 Rocket 4.4 23:26:41 23° SW 23:28:54 41° WNW 23:33:02 10° N
Resurs 1-4 Rocket 4.4 23:31:26 10° ENE 23:33:25 12° E 23:35:24 10° ESE
BREEZE-M DEB (TANK) 3.2 23:27:57 10° WSW 23:36:45 78° SSE 23:39:45 10° E
Cosmos 1503 Rocket 4.2 23:33:07 10° NNW 23:38:22 61° WSW 23:40:43 32° S
Cosmos 1825 Rocket 3.5 23:39:29 38° S 23:41:07 81° E 23:45:28 10° NNE
Cosmos 1934 Rocket 4.0 23:35:43 10° N 23:41:49 79° E 23:45:24 26° SSE
Meteor 2-2 Rocket 4.4 23:36:07 10° N 23:42:09 85° E 23:45:37 27° SSE
Cosmos 1340 Rocket 3.2 23:41:37 35° SSE 23:42:50 49° E 23:46:39 10° NNE
BREEZE-M DEB (TANK) 3.3 23:45:28 35° SE 23:45:28 35° SE 23:50:29 10° ENE
Cosmos 972 Rocket 4.3 23:42:03 10° NNW 23:47:05 64° ENE 23:50:43 21° SE
Geosat 4.5 23:46:28 15° SE 23:50:35 59° NE 23:55:32 10° NNW
SJ 16-02 1.4 23:47:06 10° NNW 23:51:31 66° WSW 23:53:10 36° S
Cosmos 1777 Rocket 4.0 23:46:51 10° NNW 23:52:11 84° WSW 23:55:00 28° SSE
Cosmos 2322 Rocket 2.2 23:47:53 10° NNW 23:53:34 75° WSW 23:56:45 27° SSE
ATLAS 5 CENTAUR R/B 1.6 23:51:32 26° WSW 23:53:34 65° NW 23:57:52 10° NE
